Regional Weather Roundup
Issued by NWS

Home | Current Version | Previous Version | Graphics & Text | Print | Product List | Glossary On
Versions: 1 2 3 4 5 6 7 8 9 10 11 12 13 14 15 16 17 18 19 20 21 22 23 24 25 26 27 28 29 30 31 32 33 34 35 36 37 38 39 40 41 42 43 44 45 46 47 48 49 50
000
ASUS45 KABQ 190510
RWRNM
NEW MEXICO REGIONAL WEATHER ROUNDUP
NATIONAL WEATHER SERVICE ALBUQUERQUE NM
1000 PM MST SUN FEB 18 2018

NOTE: "FAIR" MEANS FEW OR NO CLOUDS BELOW 12,000 FEET AGL WITH NO
       SIGNIFICANT WEATHER OR OBSTRUCTIONS TO VISION.

      THIS PRODUCT IS RELEASED AS TWO VERSIONS.  ONE VERSION NEAR
      THE TOP OF THE HOUR CONTAINING PRELIMINARY DATA FROM ALBUQUERQUE
      AND OTHER STATIONS.  A FINAL VERSION WITH ADDITIONAL DATA IS
      ISSUED ABOUT 10 MINUTES AFTER THE HOUR.

NMZ501-503-504-510>518-190600-
NORTHWEST PLATEAU/NORTHCENTRAL MOUNTAINS

CITY           SKY/WX    TMP DP  RH WIND       PRES   REMARKS
FARMINGTON     FAIR      46  26  45 S12       29.67R
LOS ALAMOS     MOCLDY    44  25  46 SW14      29.79F
SANTA FE       FAIR      48  29  47 SW28G41   29.76F
TAOS           FAIR      42  23  46 W22       29.76R
ANGEL FIRE     FAIR      37  20  50 S12       29.76F WCI  29

$$
NMZ402-403-502-505>509-190600-
WESTCENTRAL MOUNTAINS/SOUTHWEST MOUNTAINS

CITY           SKY/WX    TMP DP  RH WIND       PRES   REMARKS
GALLUP         MOCLDY    43  32  65 SW24G31   29.79F
GRANTS         MOCLDY    42  30  63 S3        29.84S
SILVER CITY    CLOUDY    46  43  89 NW3       29.92S

$$
NMZ407-409-411-412-190600-
SOUTHERN DESERTS

CITY           SKY/WX    TMP DP  RH WIND       PRES   REMARKS
DEMING         LGT RAIN  54  47  77 W15       29.90S
LAS CRUCES     FAIR      54  46  75 W10       29.91R
ALAMOGORDO     CLOUDY    57  45  62 SW6       29.89R
T OR C         FAIR      53  43  68 S7        29.84F

$$
NMZ519>523-190600-
CENTRAL VALLEYS/CENTRAL HIGHLANDS

CITY           SKY/WX    TMP DP  RH WIND       PRES   REMARKS
ALBUQUERQUE    FAIR      50  31  48 W6        29.80F
DOUBLE EAGLE   MOCLDY    45  32  61 SW10      29.82F
MORIARTY ARPT  CLOUDY    46  35  67 W3        29.82F
CLINES CORNERS NOT AVBL
BELEN          MOCLDY    49  34  54 CALM      29.81S
SOCORRO        FAIR      53  33  46 SW17G23   29.80F

$$
NMZ524>526-539-540-190600-
SOUTHCENTRAL MOUNTAINS

CITY           SKY/WX    TMP DP  RH WIND       PRES   REMARKS
RUIDOSO        CLOUDY    48  36  61 W17G23    29.89F

$$
NMZ527>531-190600-
NORTHEAST HIGHLANDS/NORTHEAST PLAINS

CITY           SKY/WX    TMP DP  RH WIND       PRES   REMARKS
LAS VEGAS      FAIR      46  24  42 SW29G38   29.74F
RATON          FAIR      37  20  50 S9        29.64F WCI  30
CLAYTON        FAIR      51  36  56 S21       29.60F

$$
NMZ532>537-190600-
EASTCENTRAL PLAINS

CITY           SKY/WX    TMP DP  RH WIND       PRES   REMARKS
SANTA ROSA     FAIR      51  37  58 SW8       29.75F
TUCUMCARI      FAIR      58  39  49 SW15      29.69R
CANNON AFB     FAIR      53  45  75 SW13      29.76F
CLOVIS AIRPORT NOT AVBL

$$
NMZ028-029-538-190600-
SOUTHEAST PLAINS

CITY           SKY/WX    TMP DP  RH WIND       PRES   REMARKS
ROSWELL        FAIR      62  43  49 S13       29.78S
ARTESIA        FAIR      61  45  55 SW13      29.80F
CARLSBAD       FAIR      62  42  47 SW14      29.79F
HOBBS          CLOUDY    57  55  94 S12       29.83S


$$



USA.gov is the U.S. government's official web portal to all federal, state and local government web resources and services.